STARLINK-34152

Satellite information

Favourite Embed

Satellite Type and Status

PAYLOADIN ORBIT

Key statistics

Satellite STARLINK-34152 at a glance.

Uptime

213

Days in orbit

Revolutions

≈ 15.3

Per day

Orbit

LEO

Low Earth Orbit

Inclination

43.0

Latest

Satellite identification and parameters

Extended collection of information and parameters for STARLINK-34152.

Object identification

Identified? True

Debris? False

Object name: STARLINK-34152

International designator: 2025-101G

Object number (NORAD): 64000

Object ID (CCSDS): 64000

Country: UNITED STATES OF AMERICA (US)

Current information (Y/N): Y

RCS size: LARGE

Orbital parameters

Period: 94.266 minutes

Inclination: 43.001 deg

SMA: 6861.148 km

Apoapsis: 484.056 km

Periapsis: 481.971 km

RAAN: 136.1159 deg

Eccentricy: 0.00015196

Argument of periapsis: 260.3917 deg

Mean anomaly: 99.6763 deg

Mean motion: 15.27592627 rev/day

Mean motion (dot): 0.0002555 rev/day2

B* drag term: 0.00093441472 1/REarth

Two-line elements (TLE)

Creation date: Dec. 11, 2025, 7:14 p.m.

Reference frame: TEME

Reference center: EARTH

Epoch: Dec. 11, 2025, 11:11 a.m. UTC

TLE line 0: 0 STARLINK-34152

TLE line 1: 1 64000U 25101G 25345.46632690 .00025550 00000-0 93441-3 0 9995

TLE line 2: 2 64000 43.0010 136.1159 0001520 260.3917 99.6763 15.27592627 33565

Live tracking on map

Real-time ground track for satellite STARLINK-34152.

In-orbit conjunctions

There are no conjunctions computed for STARLINK-34152, at the moment. Check back to stay up to date, as we update our databases every day.

Go to all conjunctions

Associated space launch

A batch of 28 satellites for the Starlink mega-constellation - SpaceX's project for space-based Internet communication system.

STARLINK-34152 was lifted into orbit during the mission ‘Falcon 9 Block 5 | Starlink Group 6-67’, on board a Falcon 9 space rocket.

The launch took place on May 14, 2025, 4:38 p.m. from Space Launch Complex 40.

For more information about the launch, click the button.

Launch to space Falcon 9 Block 5 | Starlink Group 6-67
Falcon 9 Block 5 | Starlink Group 6-67

Agency: SpaceX

Status: Launch Successful

Launch date: May 14, 2025, 4:38 p.m. UTC

Rocket: Falcon 9

Launch pad: Space Launch Complex 40

Location: Cape Canaveral SFS, FL, USA

...

Latest news about this satellite

News about space launch
Live coverage: SpaceX to launch 28 Starlink V2 Mini satellites on Falcon 9 rocket from Cape Canaveral

The Starlink 6-67 mission will fly on a south-easterly trajectory once it departs from pad 40 at Cape Canaveral Space Force Station. Liftoff is targeting 12:38 p.m. EDT (1638 UTC) on May 14.

News about space launch
Launch Roundup: Orbital launches from five countries planned

On the heels of a busy April, activity is ramping up for May with launches… The post Launch Roundup: Orbital launches from five countries planned appeared first on NASASpaceFlight.com.


Newsletter sign-up

Weekly statistics, charts and insights to help you stay on top of the space industry.